contact:dominique.lefevre@mio.osupytheas.fr, maurice.libes@osupytheas.fr, didier.mallarino@osupytheas.fr
Project:EMSO http://www.emso-fr.org/EMSO-France
Depth: 2436.0 m
Title:EMSO Ligure Ouest : Data MII capteur MICROCAT
DateTime_Computer,Latitude,Longitude,Temperature,Conductivity,Pressure,DateTime_Instrument
DateTime_Computer,Latitude,Longitude,degC,S m-1,dbar,DateTime_Instrument
2024-01-03T00:00:23Z,42.805,6.029,13.3039,4.60115,2470.787,2024-1-03T02:02:55Z
2024-01-03T00:03:27Z,42.805,6.029,13.3040,4.60114,2470.777,2024-1-03T02:05:58Z
2024-01-03T00:06:30Z,42.805,6.029,13.3036,4.60114,2470.787,2024-1-03T02:09:01Z
2024-01-03T00:09:33Z,42.805,6.029,13.3037,4.60115,2470.824,2024-1-03T02:12:04Z
2024-01-03T00:12:36Z,42.805,6.029,13.3036,4.60115,2470.787,2024-1-03T02:15:07Z
2024-01-03T00:15:39Z,42.805,6.029,13.3035,4.60115,2470.8,2024-1-03T02:18:10Z
2024-01-03T00:18:42Z,42.805,6.029,13.3038,4.60114,2470.787,2024-1-03T02:21:13Z
2024-01-03T00:21:45Z,42.805,6.029,13.3039,4.60116,2470.787,2024-1-03T02:24:16Z
2024-01-03T00:24:48Z,42.805,6.029,13.3039,4.60114,2470.787,2024-1-03T02:27:19Z
2024-01-03T00:27:51Z,42.805,6.029,13.3037,4.60116,2470.74,2024-1-03T02:30:23Z
2024-01-03T00:30:54Z,42.805,6.029,13.3038,4.60114,2470.763,2024-1-03T02:33:26Z
2024-01-03T00:33:57Z,42.805,6.029,13.3040,4.60119,2470.8,2024-1-03T02:36:29Z
2024-01-03T00:37:00Z,42.805,6.029,13.3035,4.60114,2470.787,2024-1-03T02:39:32Z
2024-01-03T00:40:03Z,42.805,6.029,13.3036,4.60116,2470.787,2024-1-03T02:42:35Z
2024-01-03T00:43:07Z,42.805,6.029,13.3036,4.60113,2470.787,2024-1-03T02:45:38Z
2024-01-03T00:46:10Z,42.805,6.029,13.3037,4.60113,2470.787,2024-1-03T02:48:41Z
2024-01-03T00:49:13Z,42.805,6.029,13.3036,4.60114,2470.8,2024-1-03T02:51:44Z
2024-01-03T00:52:16Z,42.805,6.029,13.3034,4.60114,2470.8,2024-1-03T02:54:47Z
2024-01-03T00:55:19Z,42.805,6.029,13.3037,4.60114,2470.81,2024-1-03T02:57:50Z
2024-01-03T00:58:22Z,42.805,6.029,13.3039,4.60112,2470.787,2024-1-03T03:00:53Z
2024-01-03T01:01:25Z,42.805,6.029,13.3034,4.60113,2470.717,2024-1-03T03:03:56Z
2024-01-03T01:04:28Z,42.805,6.029,13.3038,4.60113,2470.777,2024-1-03T03:06:59Z
2024-01-03T01:07:31Z,42.805,6.029,13.3039,4.60114,2470.8,2024-1-03T03:10:03Z
2024-01-03T01:10:34Z,42.805,6.029,13.3034,4.60112,2470.787,2024-1-03T03:13:06Z
2024-01-03T01:13:37Z,42.805,6.029,13.3034,4.60113,2470.787,2024-1-03T03:16:09Z
2024-01-03T01:16:40Z,42.805,6.029,13.3035,4.60112,2470.763,2024-1-03T03:19:12Z
2024-01-03T01:19:43Z,42.805,6.029,13.3035,4.60113,2470.763,2024-1-03T03:22:15Z
2024-01-03T01:22:46Z,42.805,6.029,13.3039,4.60112,2470.763,2024-1-03T03:25:18Z
2024-01-03T01:25:50Z,42.805,6.029,13.3035,4.60112,2470.787,2024-1-03T03:28:21Z
2024-01-03T01:28:53Z,42.805,6.029,13.3035,4.60112,2470.763,2024-1-03T03:31:24Z
2024-01-03T01:31:56Z,42.805,6.029,13.3035,4.60114,2470.763,2024-1-03T03:34:27Z
2024-01-03T01:34:59Z,42.805,6.029,13.3034,4.60112,2470.763,2024-1-03T03:37:30Z
2024-01-03T01:38:02Z,42.805,6.029,13.3031,4.60112,2470.777,2024-1-03T03:40:33Z
2024-01-03T01:41:05Z,42.805,6.029,13.3033,4.60112,2470.754,2024-1-03T03:43:36Z
2024-01-03T01:44:08Z,42.805,6.029,13.3033,4.60112,2470.763,2024-1-03T03:46:39Z
2024-01-03T01:47:11Z,42.805,6.029,13.3034,4.60112,2470.754,2024-1-03T03:49:43Z
2024-01-03T01:50:14Z,42.805,6.029,13.3031,4.60113,2470.74,2024-1-03T03:52:46Z
2024-01-03T01:53:17Z,42.805,6.029,13.3034,4.60111,2470.763,2024-1-03T03:55:49Z
2024-01-03T01:56:20Z,42.805,6.029,13.3032,4.60111,2470.763,2024-1-03T03:58:52Z
2024-01-03T01:59:23Z,42.805,6.029,13.3034,4.60112,2470.8,2024-1-03T04:01:55Z
2024-01-03T02:02:26Z,42.805,6.029,13.3034,4.60113,2470.74,2024-1-03T04:04:58Z
2024-01-03T02:05:30Z,42.805,6.029,13.3036,4.60112,2470.763,2024-1-03T04:08:01Z
2024-01-03T02:08:33Z,42.805,6.029,13.3031,4.60111,2470.74,2024-1-03T04:11:04Z
2024-01-03T02:11:36Z,42.805,6.029,13.3033,4.60112,2470.777,2024-1-03T04:14:07Z
2024-01-03T02:14:39Z,42.805,6.029,13.3035,4.60113,2470.763,2024-1-03T04:17:10Z
2024-01-03T02:17:42Z,42.805,6.029,13.3032,4.60112,2470.763,2024-1-03T04:20:13Z
2024-01-03T02:20:45Z,42.805,6.029,13.3031,4.60113,2470.763,2024-1-03T04:23:16Z
2024-01-03T02:23:48Z,42.805,6.029,13.3037,4.60112,2470.74,2024-1-03T04:26:19Z
2024-01-03T02:26:51Z,42.805,6.029,13.3035,4.60112,2470.74,2024-1-03T04:29:22Z
2024-01-03T02:29:54Z,42.805,6.029,13.3036,4.60112,2470.754,2024-1-03T04:32:26Z
2024-01-03T02:32:57Z,42.805,6.029,13.3038,4.60113,2470.717,2024-1-03T04:35:29Z
2024-01-03T02:36:00Z,42.805,6.029,13.3036,4.60112,2470.717,2024-1-03T04:38:32Z
2024-01-03T02:39:03Z,42.805,6.029,13.3035,4.60111,2470.73,2024-1-03T04:41:35Z
2024-01-03T02:42:06Z,42.805,6.029,13.3036,4.60112,2470.763,2024-1-03T04:44:38Z
2024-01-03T02:45:10Z,42.805,6.029,13.3033,4.60112,2470.726,2024-1-03T04:47:41Z
2024-01-03T02:48:13Z,42.805,6.029,13.3034,4.60111,2470.754,2024-1-03T04:50:44Z
2024-01-03T02:51:16Z,42.805,6.029,13.3036,4.60111,2470.74,2024-1-03T04:53:47Z
2024-01-03T02:54:19Z,42.805,6.029,13.3035,4.60112,2470.74,2024-1-03T04:56:50Z
2024-01-03T02:57:22Z,42.805,6.029,13.3037,4.60111,2470.74,2024-1-03T04:59:53Z
2024-01-03T03:00:25Z,42.805,6.029,13.3033,4.60112,2470.754,2024-1-03T05:02:56Z
2024-01-03T03:03:28Z,42.805,6.029,13.3033,4.60112,2470.74,2024-1-03T05:05:59Z
2024-01-03T03:06:31Z,42.805,6.029,13.3031,4.60112,2470.74,2024-1-03T05:09:02Z
2024-01-03T03:09:34Z,42.805,6.029,13.3036,4.60112,2470.74,2024-1-03T05:12:06Z
2024-01-03T03:12:37Z,42.805,6.029,13.3034,4.60115,2470.717,2024-1-03T05:15:09Z
2024-01-03T03:15:40Z,42.805,6.029,13.3036,4.60111,2470.73,2024-1-03T05:18:12Z
2024-01-03T03:18:43Z,42.805,6.029,13.3034,4.60112,2470.74,2024-1-03T05:21:15Z
2024-01-03T03:21:46Z,42.805,6.029,13.3036,4.60112,2470.74,2024-1-03T05:24:18Z
2024-01-03T03:24:50Z,42.805,6.029,13.3034,4.60111,2470.717,2024-1-03T05:27:21Z
2024-01-03T03:27:53Z,42.805,6.029,13.3032,4.60111,2470.74,2024-1-03T05:30:24Z
2024-01-03T03:30:56Z,42.805,6.029,13.3036,4.60112,2470.73,2024-1-03T05:33:27Z
2024-01-03T03:33:59Z,42.805,6.029,13.3035,4.60113,2470.717,2024-1-03T05:36:30Z
2024-01-03T03:37:02Z,42.805,6.029,13.3033,4.60111,2470.74,2024-1-03T05:39:33Z
2024-01-03T03:40:05Z,42.805,6.029,13.3036,4.60112,2470.74,2024-1-03T05:42:36Z
2024-01-03T03:43:08Z,42.805,6.029,13.3035,4.60112,2470.703,2024-1-03T05:45:39Z
2024-01-03T03:46:11Z,42.805,6.029,13.3030,4.60112,2470.717,2024-1-03T05:48:42Z
2024-01-03T03:49:14Z,42.805,6.029,13.3033,4.60113,2470.73,2024-1-03T05:51:46Z
2024-01-03T03:52:17Z,42.805,6.029,13.3033,4.60112,2470.74,2024-1-03T05:54:49Z
2024-01-03T03:55:20Z,42.805,6.029,13.3034,4.60112,2470.693,2024-1-03T05:57:52Z
2024-01-03T03:58:23Z,42.805,6.029,13.3031,4.60111,2470.73,2024-1-03T06:00:55Z
2024-01-03T04:01:26Z,42.805,6.029,13.3035,4.60111,2470.717,2024-1-03T06:03:58Z
2024-01-03T04:04:29Z,42.805,6.029,13.3033,4.60112,2470.73,2024-1-03T06:07:01Z
2024-01-03T04:07:33Z,42.805,6.029,13.3032,4.60112,2470.763,2024-1-03T06:10:04Z
2024-01-03T04:10:36Z,42.805,6.029,13.3034,4.60110,2470.693,2024-1-03T06:13:07Z
2024-01-03T04:13:39Z,42.805,6.029,13.3034,4.60111,2470.74,2024-1-03T06:16:10Z
2024-01-03T04:16:42Z,42.805,6.029,13.3033,4.60114,2470.717,2024-1-03T06:19:13Z
2024-01-03T04:19:45Z,42.805,6.029,13.3034,4.60112,2470.74,2024-1-03T06:22:16Z
2024-01-03T04:22:48Z,42.805,6.029,13.3033,4.60112,2470.703,2024-1-03T06:25:19Z
2024-01-03T04:25:51Z,42.805,6.029,13.3034,4.60112,2470.74,2024-1-03T06:28:22Z
2024-01-03T04:28:54Z,42.805,6.029,13.3035,4.60112,2470.74,2024-1-03T06:31:25Z
2024-01-03T04:31:57Z,42.805,6.029,13.3036,4.60112,2470.74,2024-1-03T06:34:29Z
2024-01-03T04:35:00Z,42.805,6.029,13.3032,4.60112,2470.717,2024-1-03T06:37:32Z
2024-01-03T04:38:03Z,42.805,6.029,13.3036,4.60111,2470.74,2024-1-03T06:40:35Z
2024-01-03T04:41:06Z,42.805,6.029,13.3036,4.60112,2470.717,2024-1-03T06:43:38Z
2024-01-03T04:44:09Z,42.805,6.029,13.3032,4.60112,2470.693,2024-1-03T06:46:41Z
2024-01-03T04:47:13Z,42.805,6.029,13.3036,4.60111,2470.717,2024-1-03T06:49:44Z
2024-01-03T04:50:16Z,42.805,6.029,13.3034,4.60111,2470.74,2024-1-03T06:52:47Z
2024-01-03T04:53:19Z,42.805,6.029,13.3034,4.60111,2470.754,2024-1-03T06:55:50Z
2024-01-03T04:56:22Z,42.805,6.029,13.3035,4.60111,2470.717,2024-1-03T06:58:53Z
2024-01-03T04:59:25Z,42.805,6.029,13.3034,4.60112,2470.74,2024-1-03T07:01:56Z
2024-01-03T05:02:28Z,42.805,6.029,13.3036,4.60113,2470.73,2024-1-03T07:04:59Z
2024-01-03T05:05:31Z,42.805,6.029,13.3034,4.60112,2470.717,2024-1-03T07:08:02Z
2024-01-03T05:08:34Z,42.805,6.029,13.3034,4.60111,2470.717,2024-1-03T07:11:05Z
2024-01-03T05:11:37Z,42.805,6.029,13.3033,4.60112,2470.703,2024-1-03T07:14:09Z
2024-01-03T05:14:40Z,42.805,6.029,13.3034,4.60112,2470.707,2024-1-03T07:17:12Z
2024-01-03T05:17:43Z,42.805,6.029,13.3035,4.60111,2470.74,2024-1-03T07:20:15Z
2024-01-03T05:20:46Z,42.805,6.029,13.3033,4.60112,2470.777,2024-1-03T07:23:18Z
2024-01-03T05:23:49Z,42.805,6.029,13.3036,4.60112,2470.73,2024-1-03T07:26:21Z
2024-01-03T05:26:53Z,42.805,6.029,13.3035,4.60113,2470.717,2024-1-03T07:29:24Z
2024-01-03T05:29:56Z,42.805,6.029,13.3034,4.60111,2470.693,2024-1-03T07:32:27Z
2024-01-03T05:32:59Z,42.805,6.029,13.3034,4.60111,2470.717,2024-1-03T07:35:30Z
2024-01-03T05:36:02Z,42.805,6.029,13.3035,4.60111,2470.693,2024-1-03T07:38:34Z
2024-01-03T05:39:05Z,42.805,6.029,13.3033,4.60112,2470.717,2024-1-03T07:41:37Z
2024-01-03T05:42:08Z,42.805,6.029,13.3033,4.60112,2470.707,2024-1-03T07:44:40Z
2024-01-03T05:45:11Z,42.805,6.029,13.3034,4.60111,2470.717,2024-1-03T07:47:43Z
2024-01-03T05:48:14Z,42.805,6.029,13.3033,4.60112,2470.73,2024-1-03T07:50:46Z
2024-01-03T05:51:18Z,42.805,6.029,13.3034,4.60111,2470.717,2024-1-03T07:53:49Z
2024-01-03T05:54:21Z,42.805,6.029,13.3032,4.60112,2470.73,2024-1-03T07:56:52Z
2024-01-03T05:57:24Z,42.805,6.029,13.3035,4.60111,2470.73,2024-1-03T07:59:55Z
2024-01-03T06:00:27Z,42.805,6.029,13.3029,4.60111,2470.754,2024-1-03T08:02:58Z
2024-01-03T06:03:30Z,42.805,6.029,13.3037,4.60111,2470.73,2024-1-03T08:06:01Z
2024-01-03T06:06:33Z,42.805,6.029,13.3034,4.60112,2470.73,2024-1-03T08:09:04Z
2024-01-03T06:09:36Z,42.805,6.029,13.3032,4.60111,2470.74,2024-1-03T08:12:07Z
2024-01-03T06:12:39Z,42.805,6.029,13.3036,4.60112,2470.693,2024-1-03T08:15:10Z
2024-01-03T06:15:42Z,42.805,6.029,13.3035,4.60112,2470.726,2024-1-03T08:18:14Z
2024-01-03T06:18:45Z,42.805,6.029,13.3031,4.60113,2470.74,2024-1-03T08:21:17Z
2024-01-03T06:21:48Z,42.805,6.029,13.3037,4.60112,2470.717,2024-1-03T08:24:20Z
2024-01-03T06:24:51Z,42.805,6.029,13.3034,4.60111,2470.74,2024-1-03T08:27:23Z
2024-01-03T06:27:54Z,42.805,6.029,13.3031,4.60113,2470.754,2024-1-03T08:30:26Z
2024-01-03T06:30:57Z,42.805,6.029,13.3037,4.60114,2470.754,2024-1-03T08:33:29Z
2024-01-03T06:34:01Z,42.805,6.029,13.3035,4.60112,2470.74,2024-1-03T08:36:32Z
2024-01-03T06:37:04Z,42.805,6.029,13.3038,4.60112,2470.754,2024-1-03T08:39:35Z
2024-01-03T06:40:07Z,42.805,6.029,13.3036,4.60112,2470.754,2024-1-03T08:42:38Z
2024-01-03T06:43:10Z,42.805,6.029,13.3035,4.60112,2470.74,2024-1-03T08:45:41Z
2024-01-03T06:46:13Z,42.805,6.029,13.3037,4.60114,2470.717,2024-1-03T08:48:44Z
2024-01-03T06:49:16Z,42.805,6.029,13.3034,4.60112,2470.777,2024-1-03T08:51:47Z
2024-01-03T06:52:19Z,42.805,6.029,13.3034,4.60112,2470.73,2024-1-03T08:54:50Z
2024-01-03T06:55:22Z,42.805,6.029,13.3034,4.60112,2470.74,2024-1-03T08:57:53Z
2024-01-03T06:58:25Z,42.805,6.029,13.3035,4.60114,2470.73,2024-1-03T09:00:57Z
2024-01-03T07:01:28Z,42.805,6.029,13.3034,4.60113,2470.74,2024-1-03T09:04:00Z
2024-01-03T07:04:31Z,42.805,6.029,13.3036,4.60112,2470.74,2024-1-03T09:07:03Z
2024-01-03T07:07:34Z,42.805,6.029,13.3036,4.60112,2470.763,2024-1-03T09:10:06Z
2024-01-03T07:10:37Z,42.805,6.029,13.3038,4.60112,2470.74,2024-1-03T09:13:09Z
2024-01-03T07:13:41Z,42.805,6.029,13.3038,4.60112,2470.763,2024-1-03T09:16:12Z
2024-01-03T07:16:44Z,42.805,6.029,13.3036,4.60112,2470.754,2024-1-03T09:19:15Z
2024-01-03T07:19:47Z,42.805,6.029,13.3036,4.60112,2470.754,2024-1-03T09:22:18Z
2024-01-03T07:22:50Z,42.805,6.029,13.3038,4.60112,2470.8,2024-1-03T09:25:21Z
2024-01-03T07:25:53Z,42.805,6.029,13.3034,4.60112,2470.763,2024-1-03T09:28:24Z
2024-01-03T07:28:56Z,42.805,6.029,13.3033,4.60114,2470.777,2024-1-03T09:31:27Z
2024-01-03T07:31:58Z,42.805,6.029,13.3034,4.60114,2470.74,2024-1-03T09:34:30Z
2024-01-03T07:35:01Z,42.805,6.029,13.3038,4.60113,2470.763,2024-1-03T09:37:33Z
2024-01-03T07:38:04Z,42.805,6.029,13.3034,4.60112,2470.74,2024-1-03T09:40:36Z
2024-01-03T07:41:07Z,42.805,6.029,13.3036,4.60112,2470.763,2024-1-03T09:43:39Z
2024-01-03T07:44:10Z,42.805,6.029,13.3033,4.60112,2470.763,2024-1-03T09:46:42Z
2024-01-03T07:47:14Z,42.805,6.029,13.3033,4.60112,2470.74,2024-1-03T09:49:45Z
2024-01-03T07:50:17Z,42.805,6.029,13.3035,4.60112,2470.763,2024-1-03T09:52:48Z
2024-01-03T07:53:20Z,42.805,6.029,13.3036,4.60114,2470.787,2024-1-03T09:55:51Z
2024-01-03T07:56:23Z,42.805,6.029,13.3034,4.60114,2470.763,2024-1-03T09:58:54Z
2024-01-03T07:59:26Z,42.805,6.029,13.3034,4.60113,2470.74,2024-1-03T10:01:57Z
2024-01-03T08:02:29Z,42.805,6.029,13.3033,4.60113,2470.763,2024-1-03T10:05:00Z
2024-01-03T08:05:32Z,42.805,6.029,13.3035,4.60112,2470.8,2024-1-03T10:08:03Z
2024-01-03T08:08:35Z,42.805,6.029,13.3034,4.60113,2470.8,2024-1-03T10:11:07Z
2024-01-03T08:11:38Z,42.805,6.029,13.3036,4.60113,2470.8,2024-1-03T10:14:10Z
2024-01-03T08:14:41Z,42.805,6.029,13.3034,4.60114,2470.777,2024-1-03T10:17:13Z
2024-01-03T08:17:44Z,42.805,6.029,13.3035,4.60113,2470.787,2024-1-03T10:20:16Z
2024-01-03T08:20:47Z,42.805,6.029,13.3037,4.60113,2470.787,2024-1-03T10:23:19Z
2024-01-03T08:23:51Z,42.805,6.029,13.3040,4.60114,2470.777,2024-1-03T10:26:22Z
2024-01-03T08:26:54Z,42.805,6.029,13.3035,4.60114,2470.763,2024-1-03T10:29:25Z
2024-01-03T08:29:57Z,42.805,6.029,13.3036,4.60114,2470.81,2024-1-03T10:32:28Z
2024-01-03T08:33:00Z,42.805,6.029,13.3034,4.60115,2470.787,2024-1-03T10:35:31Z
2024-01-03T08:36:03Z,42.805,6.029,13.3034,4.60114,2470.763,2024-1-03T10:38:34Z
2024-01-03T08:39:06Z,42.805,6.029,13.3036,4.60114,2470.787,2024-1-03T10:41:37Z
2024-01-03T08:42:09Z,42.805,6.029,13.3036,4.60114,2470.833,2024-1-03T10:44:40Z
2024-01-03T08:45:12Z,42.805,6.029,13.3035,4.60116,2470.787,2024-1-03T10:47:44Z
2024-01-03T08:48:15Z,42.805,6.029,13.3037,4.60114,2470.81,2024-1-03T10:50:47Z
2024-01-03T08:51:18Z,42.805,6.029,13.3038,4.60114,2470.81,2024-1-03T10:53:50Z
2024-01-03T08:54:21Z,42.805,6.029,13.3035,4.60113,2470.833,2024-1-03T10:56:53Z
2024-01-03T08:57:24Z,42.805,6.029,13.3035,4.60114,2470.833,2024-1-03T10:59:56Z
2024-01-03T09:00:27Z,42.805,6.029,13.3036,4.60114,2470.81,2024-1-03T11:02:59Z
2024-01-03T09:03:31Z,42.805,6.029,13.3036,4.60114,2470.824,2024-1-03T11:06:02Z
2024-01-03T09:06:34Z,42.805,6.029,13.3037,4.60114,2470.81,2024-1-03T11:09:05Z
2024-01-03T09:09:37Z,42.805,6.029,13.3034,4.60114,2470.8,2024-1-03T11:12:08Z
2024-01-03T09:12:40Z,42.805,6.029,13.3037,4.60113,2470.833,2024-1-03T11:15:11Z
2024-01-03T09:15:43Z,42.805,6.029,13.3035,4.60116,2470.787,2024-1-03T11:18:14Z
2024-01-03T09:18:46Z,42.805,6.029,13.3038,4.60114,2470.824,2024-1-03T11:21:17Z
2024-01-03T09:21:49Z,42.805,6.029,13.3035,4.60114,2470.833,2024-1-03T11:24:20Z
2024-01-03T09:24:52Z,42.805,6.029,13.3035,4.60117,2470.81,2024-1-03T11:27:24Z
2024-01-03T09:27:55Z,42.805,6.029,13.3039,4.60114,2470.833,2024-1-03T11:30:27Z
2024-01-03T09:30:58Z,42.805,6.029,13.3040,4.60115,2470.833,2024-1-03T11:33:30Z
2024-01-03T09:34:01Z,42.805,6.029,13.3035,4.60115,2470.857,2024-1-03T11:36:33Z
2024-01-03T09:37:04Z,42.805,6.029,13.3041,4.60117,2470.833,2024-1-03T11:39:36Z
2024-01-03T09:40:08Z,42.805,6.029,13.3036,4.60117,2470.833,2024-1-03T11:42:39Z
2024-01-03T09:43:11Z,42.805,6.029,13.3039,4.60118,2470.857,2024-1-03T11:45:42Z
2024-01-03T09:46:14Z,42.805,6.029,13.3040,4.60117,2470.833,2024-1-03T11:48:45Z
2024-01-03T09:49:17Z,42.805,6.029,13.3036,4.60116,2470.871,2024-1-03T11:51:48Z
2024-01-03T09:52:20Z,42.805,6.029,13.3040,4.60116,2470.833,2024-1-03T11:54:51Z
2024-01-03T09:55:23Z,42.805,6.029,13.3036,4.60117,2470.833,2024-1-03T11:57:54Z
2024-01-03T09:58:26Z,42.805,6.029,13.3036,4.60119,2470.81,2024-1-03T12:00:57Z
2024-01-03T10:01:29Z,42.805,6.029,13.3037,4.60117,2470.824,2024-1-03T12:04:01Z
2024-01-03T10:04:32Z,42.805,6.029,13.3033,4.60115,2470.857,2024-1-03T12:07:04Z
2024-01-03T10:07:35Z,42.805,6.029,13.3033,4.60116,2470.833,2024-1-03T12:10:07Z
2024-01-03T10:10:38Z,42.805,6.029,13.3039,4.60116,2470.857,2024-1-03T12:13:10Z
2024-01-03T10:13:41Z,42.805,6.029,13.3034,4.60115,2470.857,2024-1-03T12:16:13Z
2024-01-03T10:16:45Z,42.805,6.029,13.3037,4.60114,2470.857,2024-1-03T12:19:16Z
2024-01-03T10:19:48Z,42.805,6.029,13.3039,4.60114,2470.857,2024-1-03T12:22:19Z
2024-01-03T10:22:51Z,42.805,6.029,13.3034,4.60115,2470.857,2024-1-03T12:25:22Z
2024-01-03T10:25:54Z,42.805,6.029,13.3033,4.60115,2470.871,2024-1-03T12:28:25Z
2024-01-03T10:28:57Z,42.805,6.029,13.3038,4.60115,2470.857,2024-1-03T12:31:28Z
2024-01-03T10:32:00Z,42.805,6.029,13.3036,4.60116,2470.88,2024-1-03T12:34:31Z
2024-01-03T10:35:03Z,42.805,6.029,13.3035,4.60114,2470.857,2024-1-03T12:37:34Z
2024-01-03T10:38:06Z,42.805,6.029,13.3038,4.60115,2470.894,2024-1-03T12:40:38Z
2024-01-03T10:41:09Z,42.805,6.029,13.3036,4.60117,2470.857,2024-1-03T12:43:41Z
2024-01-03T10:44:12Z,42.805,6.029,13.3039,4.60114,2470.894,2024-1-03T12:46:44Z
2024-01-03T10:47:15Z,42.805,6.029,13.3039,4.60117,2470.833,2024-1-03T12:49:47Z
2024-01-03T10:50:18Z,42.805,6.029,13.3039,4.60114,2470.857,2024-1-03T12:52:50Z
2024-01-03T10:53:22Z,42.805,6.029,13.3036,4.60117,2470.857,2024-1-03T12:55:53Z
2024-01-03T10:56:25Z,42.805,6.029,13.3039,4.60115,2470.871,2024-1-03T12:58:56Z
2024-01-03T10:59:28Z,42.805,6.029,13.3036,4.60117,2470.843,2024-1-03T13:01:59Z
2024-01-03T11:02:31Z,42.805,6.029,13.3033,4.60114,2470.866,2024-1-03T13:05:02Z
2024-01-03T11:05:34Z,42.805,6.029,13.3034,4.60114,2470.88,2024-1-03T13:08:05Z
2024-01-03T11:08:37Z,42.805,6.029,13.3038,4.60116,2470.871,2024-1-03T13:11:08Z
2024-01-03T11:11:40Z,42.805,6.029,13.3037,4.60114,2470.88,2024-1-03T13:14:11Z
2024-01-03T11:14:43Z,42.805,6.029,13.3035,4.60115,2470.917,2024-1-03T13:17:14Z
2024-01-03T11:17:46Z,42.805,6.029,13.3037,4.60116,2470.904,2024-1-03T13:20:18Z
2024-01-03T11:20:49Z,42.805,6.029,13.3036,4.60114,2470.88,2024-1-03T13:23:21Z
2024-01-03T11:23:52Z,42.805,6.029,13.3037,4.60114,2470.904,2024-1-03T13:26:24Z
2024-01-03T11:26:55Z,42.805,6.029,13.3034,4.60114,2470.88,2024-1-03T13:29:27Z
2024-01-03T11:29:58Z,42.805,6.029,13.3037,4.60116,2470.88,2024-1-03T13:32:30Z
2024-01-03T11:33:02Z,42.805,6.029,13.3036,4.60114,2470.88,2024-1-03T13:35:33Z
2024-01-03T11:36:05Z,42.805,6.029,13.3036,4.60114,2470.88,2024-1-03T13:38:36Z
2024-01-03T11:39:08Z,42.805,6.029,13.3036,4.60114,2470.904,2024-1-03T13:41:39Z
2024-01-03T11:42:11Z,42.805,6.029,13.3036,4.60115,2470.88,2024-1-03T13:44:42Z
2024-01-03T11:45:14Z,42.805,6.029,13.3034,4.60115,2470.904,2024-1-03T13:47:45Z
2024-01-03T11:48:17Z,42.805,6.029,13.3036,4.60114,2470.88,2024-1-03T13:50:48Z
2024-01-03T11:51:20Z,42.805,6.029,13.3036,4.60117,2470.857,2024-1-03T13:53:51Z
2024-01-03T11:54:23Z,42.805,6.029,13.3033,4.60114,2470.904,2024-1-03T13:56:55Z
2024-01-03T11:57:26Z,42.805,6.029,13.3040,4.60114,2470.88,2024-1-03T13:59:58Z
2024-01-03T12:00:29Z,42.805,6.029,13.3033,4.60114,2470.894,2024-1-03T14:03:01Z
2024-01-03T12:03:32Z,42.805,6.029,13.3037,4.60112,2470.843,2024-1-03T14:06:04Z
2024-01-03T12:06:35Z,42.805,6.029,13.3034,4.60113,2470.857,2024-1-03T14:09:07Z
2024-01-03T12:09:38Z,42.805,6.029,13.3039,4.60114,2470.833,2024-1-03T14:12:10Z
2024-01-03T12:12:42Z,42.805,6.029,13.3035,4.60117,2470.871,2024-1-03T14:15:13Z
2024-01-03T12:15:45Z,42.805,6.029,13.3036,4.60117,2470.857,2024-1-03T14:18:16Z
2024-01-03T12:18:48Z,42.805,6.029,13.3040,4.60114,2470.904,2024-1-03T14:21:19Z
2024-01-03T12:21:51Z,42.805,6.029,13.3034,4.60114,2470.88,2024-1-03T14:24:22Z
2024-01-03T12:24:54Z,42.805,6.029,13.3035,4.60114,2470.857,2024-1-03T14:27:25Z
2024-01-03T12:27:57Z,42.805,6.029,13.3037,4.60114,2470.88,2024-1-03T14:30:28Z
2024-01-03T12:31:00Z,42.805,6.029,13.3034,4.60117,2470.94,2024-1-03T14:33:32Z
2024-01-03T12:34:03Z,42.805,6.029,13.3040,4.60115,2470.857,2024-1-03T14:36:35Z
2024-01-03T12:37:06Z,42.805,6.029,13.3033,4.60117,2470.843,2024-1-03T14:39:38Z
2024-01-03T12:40:09Z,42.805,6.029,13.3036,4.60114,2470.857,2024-1-03T14:42:41Z
2024-01-03T12:43:12Z,42.805,6.029,13.3039,4.60116,2470.857,2024-1-03T14:45:44Z
2024-01-03T12:46:15Z,42.805,6.029,13.3036,4.60114,2470.88,2024-1-03T14:48:47Z
2024-01-03T12:49:19Z,42.805,6.029,13.3035,4.60115,2470.871,2024-1-03T14:51:50Z
2024-01-03T12:52:22Z,42.805,6.029,13.3036,4.60114,2470.904,2024-1-03T14:54:53Z
2024-01-03T12:55:25Z,42.805,6.029,13.3034,4.60117,2470.857,2024-1-03T14:57:56Z
2024-01-03T12:58:28Z,42.805,6.029,13.3036,4.60117,2470.871,2024-1-03T15:00:59Z
2024-01-03T13:01:31Z,42.805,6.029,13.3039,4.60114,2470.871,2024-1-03T15:04:02Z
2024-01-03T13:04:34Z,42.805,6.029,13.3036,4.60114,2470.871,2024-1-03T15:07:05Z
2024-01-03T13:07:37Z,42.805,6.029,13.3034,4.60114,2470.88,2024-1-03T15:10:08Z
2024-01-03T13:10:40Z,42.805,6.029,13.3037,4.60115,2470.894,2024-1-03T15:13:12Z
2024-01-03T13:13:43Z,42.805,6.029,13.3036,4.60114,2470.843,2024-1-03T15:16:15Z
2024-01-03T13:16:46Z,42.805,6.029,13.3033,4.60114,2470.904,2024-1-03T15:19:18Z
2024-01-03T13:19:49Z,42.805,6.029,13.3036,4.60114,2470.871,2024-1-03T15:22:21Z
2024-01-03T13:22:52Z,42.805,6.029,13.3034,4.60114,2470.857,2024-1-03T15:25:24Z
2024-01-03T13:25:55Z,42.805,6.029,13.3035,4.60114,2470.871,2024-1-03T15:28:27Z
2024-01-03T13:28:59Z,42.805,6.029,13.3038,4.60114,2470.857,2024-1-03T15:31:30Z
2024-01-03T13:32:02Z,42.805,6.029,13.3035,4.60116,2470.871,2024-1-03T15:34:33Z
2024-01-03T13:35:05Z,42.805,6.029,13.3036,4.60114,2470.857,2024-1-03T15:37:36Z
2024-01-03T13:38:08Z,42.805,6.029,13.3039,4.60113,2470.833,2024-1-03T15:40:39Z
2024-01-03T13:41:11Z,42.805,6.029,13.3036,4.60114,2470.88,2024-1-03T15:43:42Z
2024-01-03T13:44:14Z,42.805,6.029,13.3036,4.60113,2470.833,2024-1-03T15:46:45Z
2024-01-03T13:47:17Z,42.805,6.029,13.3033,4.60114,2470.833,2024-1-03T15:49:48Z
2024-01-03T13:50:20Z,42.805,6.029,13.3034,4.60113,2470.833,2024-1-03T15:52:52Z
2024-01-03T13:53:23Z,42.805,6.029,13.3040,4.60112,2470.871,2024-1-03T15:55:55Z
2024-01-03T13:56:26Z,42.805,6.029,13.3037,4.60113,2470.81,2024-1-03T15:58:58Z
2024-01-03T13:59:29Z,42.805,6.029,13.3038,4.60112,2470.833,2024-1-03T16:02:01Z
2024-01-03T14:02:32Z,42.805,6.029,13.3034,4.60112,2470.871,2024-1-03T16:05:04Z
2024-01-03T14:05:36Z,42.805,6.029,13.3032,4.60117,2470.88,2024-1-03T16:08:07Z
2024-01-03T14:08:39Z,42.805,6.029,13.3035,4.60114,2470.843,2024-1-03T16:11:10Z
2024-01-03T14:11:42Z,42.805,6.029,13.3032,4.60112,2470.871,2024-1-03T16:14:13Z
2024-01-03T14:14:45Z,42.805,6.029,13.3033,4.60112,2470.857,2024-1-03T16:17:16Z
2024-01-03T14:17:48Z,42.805,6.029,13.3037,4.60112,2470.857,2024-1-03T16:20:19Z
2024-01-03T14:20:51Z,42.805,6.029,13.3034,4.60112,2470.81,2024-1-03T16:23:22Z
2024-01-03T14:23:54Z,42.805,6.029,13.3034,4.60112,2470.833,2024-1-03T16:26:25Z
2024-01-03T14:26:57Z,42.805,6.029,13.3040,4.60112,2470.8,2024-1-03T16:29:29Z
2024-01-03T14:30:00Z,42.805,6.029,13.3036,4.60112,2470.833,2024-1-03T16:32:32Z
2024-01-03T14:33:03Z,42.805,6.029,13.3038,4.60112,2470.843,2024-1-03T16:35:35Z
2024-01-03T14:36:06Z,42.805,6.029,13.3031,4.60113,2470.833,2024-1-03T16:38:38Z
2024-01-03T14:39:09Z,42.805,6.029,13.3036,4.60112,2470.871,2024-1-03T16:41:41Z
2024-01-03T14:42:13Z,42.805,6.029,13.3036,4.60111,2470.833,2024-1-03T16:44:44Z
2024-01-03T14:45:16Z,42.805,6.029,13.3036,4.60112,2470.847,2024-1-03T16:47:47Z
2024-01-03T14:48:19Z,42.805,6.029,13.3036,4.60111,2470.857,2024-1-03T16:50:50Z
2024-01-03T14:51:22Z,42.805,6.029,13.3033,4.60112,2470.833,2024-1-03T16:53:53Z
2024-01-03T14:54:25Z,42.805,6.029,13.3032,4.60112,2470.833,2024-1-03T16:56:56Z
2024-01-03T14:57:28Z,42.805,6.029,13.3036,4.60112,2470.833,2024-1-03T16:59:59Z
2024-01-03T15:00:31Z,42.805,6.029,13.3032,4.60114,2470.871,2024-1-03T17:03:02Z
2024-01-03T15:03:34Z,42.805,6.029,13.3035,4.60112,2470.833,2024-1-03T17:06:06Z
2024-01-03T15:06:37Z,42.805,6.029,13.3036,4.60111,2470.857,2024-1-03T17:09:09Z
2024-01-03T15:09:40Z,42.805,6.029,13.3035,4.60113,2470.81,2024-1-03T17:12:12Z
2024-01-03T15:12:43Z,42.805,6.029,13.3033,4.60111,2470.81,2024-1-03T17:15:15Z